sat.trackr.live / text

‹ back to catalog

2024-153B

NORAD 60746 · 2024-153B

PAYLOAD ACTIVE UNKNOWN

§ Identity

Operator
Country
PRC
Launch date
2024-08-29
Launch site
YSLA
Launch vehicle
Mass (kg)
RCS (m²)

External: N2YO · Heavens-Above · Gunter

§ Orbital elements

Epoch: 2026-09-22T22:25:49.425312Z

Period
93.78 min
Inclination
97.6902°
Eccentricity
0.0009759
Mean motion
15.35501124 rev/d
Perigee alt
452.8 km
Apogee alt
466.1 km
Semi-major
6,837.6 km
B*
3.1015e-4
RAAN
49.3993°
Arg perigee
167.8124°
Mean anomaly
192.3357°
Rev number
11,494

§ Raw data

2024-153B1 60746U 24153B   26265.93459983  .00010633  00000+0  31015-3 0  99942 60746  97.6902  49.3993 0009759 167.8124 192.3357 15.35501124114940

JSON: /api/v1/satellites/60746 · /tle

For live sub-satellite position, see the globe view (requires WebGL).

§ Visibility from observer

Set your observer location to see the next 7 days of passes ≥ 10°. The values pass through the URL so the page stays shareable.

No JS? Fill the form by hand. The geolocation button needs JavaScript.